{"data":{"norad_id":53845,"epoch":"2026-05-24T17:56:42.015264Z","epoch_age_seconds":92761,"freshness":"FRESH","line1":"1 53845U 22114AD  26144.74770851  .00000696  00000+0  61830-4 0  9993","line2":"2 53845  53.2135 312.7095 0001337  98.3411 261.7733 15.08838585204458","mean_motion":15.08838585,"eccentricity":0.0001337,"inclination_deg":53.2135,"raan_deg":312.7095,"arg_perigee_deg":98.3411,"mean_anomaly_deg":261.7733,"bstar":6.183e-5,"rev_number":20445,"period_min":95.437644179811,"perigee_km":538.82279287013,"apogee_km":540.67263524267,"semimajor_km":6917.8847140564,"source":"CELESTRAK","updated_at":"2026-05-25T13:38:17.575097Z"}}